• Join FlightAware (Why Join?)
  • Login
  • US Flag GB Flag 
11:48 EDT


 

Airport Tracker/Info


-or-


 

Live Flight TrackerFlight Track Log ✈ N523JM ✈ 30-Sep-2013 ✈ KMTJ - KOSU

Flight Track Log - Related Links

Times and Time Zones

All times are in EDT time to prevent confusion due to time zone crossing. See the N523JM flight status page for this flight to view local times or setup timezone preferences in your user account.

Time Position Orientation Groundspeed Altitude Reporting Facility
EDT Latitude Longitude Course Direction KTS MPH feet Rate Location/Type
14:08 38.5322 -107.8922 78° East 180 207 6,200  Level Denver Center
14:09 38.5856 -107.9183 339° North 217 250 8,900 2,880 Climbing Denver Center
14:10 38.6615 -107.0010 77° East  Level Estimated
14:10 38.5683 -108.0092 256° West 247 284 12,200  Level Denver Center
14:11 38.6861 -106.8518 78° East  Level Estimated
14:11 38.4981 -107.9664 155° Southeast 296 341 15,200  Level Denver Center
14:12 38.7105 -106.7024 78° East  Level Estimated
14:12 38.4961 -107.8500 91° East 337 388 17,200  Level Denver Center
14:13 38.7348 -106.5530 78° East  Level Estimated
14:13 38.4903 -107.7294 94° East 355 409 18,900  Level Denver Center
14:14 38.4814 -107.5803 94° East 375 432 20,900 1,680 Climbing Denver Center
14:15 38.4758 -107.4439 93° East 398 458 22,500 1,500 Climbing Denver Center
14:16 38.4975 -107.2867 80° East 409 471 24,100 1,380 Climbing Denver Center
14:17 38.5192 -107.1514 78° East 412 474 25,400 1,200 Climbing Denver Center
14:18 38.5419 -107.0022 79° East 424 488 26,700 1,380 Climbing Denver Center
14:19 38.5692 -106.8192 79° East 436 502 28,300 1,440 Climbing Denver Center
14:20 38.5922 -106.6681 79° East 435 501 29,700 1,140 Climbing Denver Center
14:21 38.6144 -106.5144 79° East 439 505 30,700 840 Climbing Denver Center
14:22 38.6375 -106.3586 79° East 446 513 31,700 960 Climbing Denver Center
14:23 38.6681 -106.1550 79° East 453 521 32,900 960 Climbing Denver Center
14:24 38.6903 -105.9950 80° East 459 528 33,800 720 Climbing Denver Center
14:25 38.7136 -105.8358 79° East 458 527 34,500 660 Climbing Denver Center
14:26 38.7364 -105.6725 80° East 463 533 35,200 780 Climbing Denver Center
14:27 38.7631 -105.4750 80° East 470 541 36,200 780 Climbing Denver Center
14:29 38.7858 -105.3139 80° East 465 535 36,900 360 Climbing Denver Center
14:30 38.8089 -105.1514 80° East 466 536 37,000  Climbing Denver Center
14:31 38.8306 -104.9867 80° East 473 544 37,000  Level Denver Center
14:32 38.8533 -104.8178 80° East 479 551 37,000  Level Denver Center
14:33 38.8803 -104.6178 80° East 478 550 37,000  Level Denver Center
14:34 38.9019 -104.4486 81° East 482 555 37,000  Level Denver Center
14:35 38.9247 -104.2778 80° East 486 559 37,000  Level Denver Center
14:36 38.9503 -104.0736 81° East 487 560 37,000  Level Denver Center
14:37 38.9725 -103.9031 80° East 487 560 37,000  Level Denver Center
14:38 38.9928 -103.7333 81° East 485 558 37,000  Level Denver Center
14:39 39.0181 -103.5294 81° East 484 557 37,000  Level Denver Center
14:40 39.0394 -103.3583 81° East 486 559 37,000  Level Denver Center
14:41 39.0594 -103.1869 81° East 487 560 37,000  Level Denver Center
14:42 39.0789 -103.0172 82° East 485 558 37,000  Level Denver Center
14:43 39.0989 -102.8453 81° East 486 559 37,000  Level Denver Center
14:44 39.1222 -102.6461 81° East 489 563 37,000  Level Denver Center
14:45 39.1408 -102.4794 82° East 490 564 37,000  Level Denver Center
14:46 39.1625 -102.2861 82° East 490 564 37,000  Level Denver Center
14:47 39.1806 -102.1181 82° East 493 567 37,000  Level Denver Center
14:48 39.2014 -101.9239 82° East 490 564 37,000  Level Denver Center
14:49 39.2192 -101.7569 82° East 490 564 37,000  Level Denver Center
14:50 39.2378 -101.5789 82° East 488 562 37,000  Level Denver Center
14:51 39.2544 -101.4147 82° East 486 559 37,000  Level Denver Center
14:52 39.2717 -101.2494 82° East 487 560 37,000  Level Denver Center
14:53 39.2911 -101.0564 83° East 486 559 37,000  Level Denver Center
14:55 39.3100 -100.8653 83° East 483 556 37,000  Level Denver Center
14:56 39.3261 -100.6975 83° East 490 564 37,000  Level Denver Center
14:57 39.3450 -100.5039 83° East 489 563 37,000  Level Denver Center
14:58 39.3603 -100.3350 83° East 493 567 37,000  Level Denver Center
14:59 39.3781 -100.1386 83° East 494 568 37,000  Level Denver Center
15:00 39.3939 -99.9719 83° East 491 565 37,000  Level Denver Center
15:01 39.4111 -99.7756 83° East 493 567 37,000  Level Denver Center
15:02 39.4258 -99.6064 84° East 494 568 37,000  Level Denver Center
15:03 39.4425 -99.4086 84° East 497 572 37,000  Level Denver Center
15:04 39.4575 -99.2358 84° East 495 570 37,000  Level Denver Center
15:05 39.4719 -99.0581 84° East 496 571 37,000  Level Denver Center
15:06 39.4864 -98.8817 84° East 496 571 37,000  Level Denver Center
15:07 39.4997 -98.7042 84° East 496 571 37,000  Level Denver Center
15:08 39.5158 -98.5208 83° East 499 574 37,000  Level Kansas City Center
15:09 39.5297 -98.3417 84° East 499 574 37,000  Level Kansas City Center
15:10 39.5456 -98.1272 84° East 498 573 37,000  Level Kansas City Center
15:11 39.5589 -97.9478 84° East 499 574 37,000  Level Kansas City Center
15:12 39.5725 -97.7744 84° East 504 580 37,000  Level Kansas City Center
15:13 39.5850 -97.5975 85° East 498 573 37,000  Level Kansas City Center
15:14 39.5997 -97.3864 85° East 494 568 37,000  Level Kansas City Center
15:15 39.6114 -97.2125 85° East 489 563 37,000  Level Kansas City Center
15:16 39.6211 -97.0247 86° East 493 567 37,000  Level Kansas City Center
15:17 39.6336 -96.8392 85° East 492 566 37,000  Level Kansas City Center
15:18 39.6422 -96.6847 86° East 491 565 37,000  Level Kansas City Center
15:19 39.6553 -96.4872 85° East 492 566 37,000  Level Kansas City Center
15:20 39.6644 -96.3183 86° East 491 565 37,000  Level Kansas City Center
15:21 39.6750 -96.1200 86° East 492 566 37,000  Level Kansas City Center
15:22 39.6844 -95.9517 86° East 490 564 37,000  Level Kansas City Center
15:23 39.6942 -95.7536 86° East 491 565 37,000  Level Kansas City Center
15:25 39.7031 -95.5847 86° East 489 563 37,000  Level Kansas City Center
15:26 39.7128 -95.3858 86° East 492 566 37,000  Level Kansas City Center
15:27 39.7222 -95.2161 86° East 490 564 37,000  Level Kansas City Center
15:28 39.7294 -95.0458 87° East 490 564 37,000  Level Kansas City Center
15:29 39.7386 -94.8472 87° East 491 565 37,000  Level Kansas City Center
15:30 39.7467 -94.6772 86° East 491 565 37,000  Level Kansas City Center
15:31 39.7564 -94.4764 86° East 497 572 37,000  Level Kansas City Center
15:32 39.7628 -94.3081 87° East 490 564 37,000  Level Kansas City Center
15:33 39.7706 -94.1094 87° East 491 565 37,000  Level Kansas City Center
15:34 39.7772 -93.9397 87° East 490 564 37,000  Level Kansas City Center
15:35 39.7836 -93.7694 87° East 492 566 37,000  Level Kansas City Center
15:36 39.7883 -93.5786 88° East 503 579 37,000  Level Kansas City Center
15:37 39.7953 -93.4011 87° East 501 577 37,000  Level Kansas City Center
15:38 39.8036 -93.1947 87° East 490 564 37,000  Level Kansas City Center
15:39 39.8094 -93.0189 87° East 491 565 37,000  Level Kansas City Center
15:40 39.8136 -92.8406 88° East 500 575 37,000  Level Kansas City Center
15:41 39.8181 -92.6636 88° East 499 574 37,000  Level Kansas City Center
15:42 39.8239 -92.4497 88° East 503 579 37,000  Level Kansas City Center
15:43 39.8278 -92.2744 88° East 497 572 37,000  Level Kansas City Center
15:44 39.8314 -92.0994 88° East 493 567 37,000  Level Kansas City Center
15:45 39.8350 -91.9233 88° East 494 568 37,000  Level Kansas City Center
15:46 39.8386 -91.7461 88° East 494 568 37,000  Level Kansas City Center
15:47 39.8428 -91.5358 88° East 492 566 37,000  Level Kansas City Center
15:48 39.8453 -91.3583 89° East 494 568 37,000  Level Kansas City Center
15:49 39.8461 -91.1822 90° East 492 566 37,000  Level Kansas City Center
15:50 39.8494 -91.0078 89° East 490 564 37,000  Level Kansas City Center
15:51 39.8525 -90.8278 89° East 488 562 37,000  Level Kansas City Center
15:52 39.8542 -90.6514 89° East 489 563 37,000  Level Kansas City Center
15:53 39.8558 -90.4414 89° East 488 562 37,000  Level Kansas City Center
15:54 39.8564 -90.2658 90° East 488 562 37,000  Level Kansas City Center
15:56 39.8572 -90.0894 90° East 488 562 37,000  Level Kansas City Center
15:57 39.8583 -89.9133 89° East 489 563 37,000  Level Kansas City Center
15:58 39.8589 -89.7389 90° East 487 560 37,000  Level Kansas City Center
15:59 39.8578 -89.5661 90° East 484 557 37,000  Level Kansas City Center
16:00 39.8586 -89.3581 90° East 483 556 37,000  Level Kansas City Center
16:01 39.8581 -89.1839 90° East 482 555 37,000  Level Kansas City Center
16:02 39.8575 -89.0117 90° East 480 552 37,000  Level Kansas City Center
16:03 39.8567 -88.8372 90° East 482 555 37,000  Level Kansas City Center
16:04 39.8558 -88.6650 90° East 481 554 37,000  Level Kansas City Center
16:05 39.8550 -88.4919 90° East 480 552 37,000  Level Kansas City Center
16:06 39.8522 -88.2847 91° East 479 551 37,000  Level Kansas City Center
16:07 39.8497 -88.0994 91° East 478 550 37,000  Level Kansas City Center
16:08 39.8475 -87.9258 91° East 478 550 37,000  Level Kansas City Center
16:09 39.8456 -87.7508 91° East 479 551 37,000  Level Kansas City Center
16:10 39.8425 -87.5781 91° East 478 550 37,000  Level Kansas City Center
16:11 39.8372 -87.3219 91° East 479 551 37,000  Level Indianapolis Center
16:12 39.8522 -87.1544 83° East 470 541 37,000  Level Indianapolis Center
16:13 39.8711 -86.9858 82° East 470 541 37,000  Level Indianapolis Center
16:15 39.8886 -86.8183 82° East 468 539 37,000 -300 Level Indianapolis Center
16:16 39.9083 -86.6489 81° East 470 541 36,500 -1,020 Descending Indianapolis Center
16:17 39.9578 -86.4500 72° East 476 548 35,000 -1,620 Descending Indianapolis Center
16:19 40.0053 -86.0975 80° East 492 566 31,500 -1,620 Descending Indianapolis Center
16:20 40.0300 -85.9192 80° East 497 572 30,000 -840 Descending Indianapolis Center
16:21 40.0533 -85.7397 80° East 501 577 29,800 -360 Descending Indianapolis Center
16:22 40.0781 -85.5608 80° East 502 578 29,300 -420 Descending Indianapolis Center
16:23 40.1017 -85.3792 80° East 507 583 29,000 -180 Descending Indianapolis Center
16:24 40.1303 -85.1622 80° East 505 581 29,000 -300 Level Indianapolis Center
16:25 40.1536 -84.9819 80° East 505 581 28,500 -840 Descending Indianapolis Center
16:26 40.1750 -84.8225 80° East 509 586 27,300 -1,440 Descending Indianapolis Center
16:27 40.2014 -84.6083 81° East 498 573 25,600 -1,560 Descending Indianapolis Center
16:28 40.2047 -84.4319 89° East 486 559 24,100 -1,500 Descending Indianapolis Center
16:29 40.2072 -84.2572 89° East 482 555 22,500 -1,560 Descending Indianapolis Center
16:30 40.2192 -84.0839 85° East 478 550 20,900 -1,800 Descending Indianapolis Center
16:31 40.2297 -83.9100 85° East 479 551 18,900 -2,040 Descending Indianapolis Center
16:32 40.2372 -83.7483 86° East 484 557 17,200 -1,860 Descending Indianapolis Center
16:32 40.2375 -83.7328 89° East 484 557 17,000 -2,100 Descending Indianapolis Center
16:33 40.2467 -83.5717 86° East 451 519 15,100 -2,460 Descending Indianapolis Center
16:33 40.2500 -83.5353 83° East 450 518 14,500 -2,460 Descending Indianapolis Center
16:34 40.2550 -83.4250 87° East 378 435 12,600 -2,460 Descending Indianapolis Center
16:34 40.2572 -83.3939 85° East 395 455 12,000 -2,580 Descending Indianapolis Center
16:35 40.2458 -83.3028 99° East 327 376 10,000 -2,640 Descending Indianapolis Center
16:35 40.2411 -83.2756 103° East 329 379 9,300 -2,640 Descending Indianapolis Center
16:36 40.2256 -83.1869 103° East 298 343 7,100 -2,520 Descending Indianapolis Center
16:36 40.2233 -83.1678 99° East 308 354 6,700 -2,820 Descending Indianapolis Center
16:37 40.2114 -83.0942 102° East 278 320 4,600 -1,860 Descending Indianapolis Center
16:37 40.2047 -83.0722 112° Southeast 288 331 4,800 -600 Climbing Indianapolis Center
16:38 40.1861 -83.0078 111° Southeast 258 297 4,000 -900 Descending Indianapolis Center
16:38 40.1808 -82.9844 106° East 272 313 3,900 -540 Descending Indianapolis Center
16:39 40.1353 -82.9669 164° South 182 209 3,400 -540 Descending Indianapolis Center
16:39 40.1317 -82.9658 167° South 223 257 3,400 -720 Level Indianapolis Center
16:40 40.0869 -82.9672 181° South 165 190 2,700 -1,080 Descending Indianapolis Center
16:40 40.0806 -82.9800 237° Southwest 191 220 2,300 -1,140 Descending Indianapolis Center
16:41 40.0786 -83.0125 266° West 135 155 1,700 -900 Descending Indianapolis Center
16:41 40.0781 -83.0325 268° West 159 183 1,400 -420 Descending Indianapolis Center
16:42 40.0769 -83.0800 268° West 152 175 1,100 -300 Descending Indianapolis Center
16:44 40.0798 -83.0732 North  Level Estimated